Location: Czekan�w
(50.3488°N, 18.7344°E)
Time: 18:40:40
(UTC+00:00)

Cosmos 2219 Rocket - Pass Details

Date: 17 February 2020
Orbit: 828 x 846 km, 71.0° (Epoch: 28 March)

Event Time Altitude Azimuth Distance (km) Brightness Sun altitude
Exits shadow 02:33:16 30° 1° (N) 1,468 3.5 -32.2°
Drops below altitude 10° 02:36:24 10° 22° (NNE) 2,480 5.1 -31.8°
Sets 02:38:58 0° 28° (NNE) 3,417 6.0 -31.4°
